This is the latest recevied weather packets stored in our database for station/object KK7KRZ. If no packets are shown the sender has not sent any weather packets the latest 1 day(s).
| Time | Temp. | Humidity | Pressure | Rain* | Wind** | Luminosity | Snow |
|---|---|---|---|---|---|---|---|
| 1777999792 | 14.44° C | 81% | 1016.1 hPa | 0 mm | 0 m/s | 94 W/m² | - |
| 1777999488 | 14.44° C | 83% | 1016.2 hPa | 0 mm | 0 m/s | 89 W/m² | - |
| 1777999186 | 13.89° C | 83% | 1015.9 hPa | 0 mm | 0 m/s | 88 W/m² | - |
| 1777998884 | 13.89° C | 83% | 1016.1 hPa | 0 mm | 0 m/s | 102 W/m² | - |
| 1777998583 | 13.33° C | 83% | 1015.9 hPa | 0 mm | 0 m/s | 107 W/m² | - |
| 1777998279 | 13.33° C | 83% | 1015.9 hPa | 0 mm | 0.45 m/s, 63° | 106 W/m² | - |
| 1777997976 | 13.33° C | 84% | 1016 hPa | 0 mm | 0 m/s | 111 W/m² | - |
| 1777997672 | 12.78° C | 84% | 1016.1 hPa | 0 mm | 0.89 m/s, 55° | 117 W/m² | - |
| 1777997370 | 13.33° C | 84% | 1016.1 hPa | 0 mm | 0 m/s | 106 W/m² | - |
| 1777997068 | 13.33° C | 85% | 1016.1 hPa | 0 mm | 0 m/s | 100 W/m² | - |
| 1777996764 | 12.78° C | 85% | 1016.3 hPa | 0 mm | 0 m/s | 93 W/m² | - |
| 1777996461 | 12.78° C | 85% | 1016.2 hPa | 0 mm | 0 m/s | 85 W/m² | - |
| 1777996157 | 13.33° C | 85% | 1016 hPa | 0 mm | 0 m/s | 67 W/m² | - |
| 1777995853 | 13.33° C | 86% | 1016.1 hPa | 0 mm | 0 m/s | 57 W/m² | - |
| 1777995550 | 12.78° C | 87% | 1015.9 hPa | 0 mm | 0 m/s | 54 W/m² | - |
| 1777995247 | 12.78° C | 87% | 1016.2 hPa | 0 mm | 0 m/s | 52 W/m² | - |
| 1777994939 | 12.78° C | 88% | 1015.9 hPa | 0 mm | 0 m/s | 51 W/m² | - |
| 1777994635 | 12.22° C | 87% | 1015.9 hPa | 0 mm | 0 m/s | 51 W/m² | - |
| 1777994335 | 12.22° C | 87% | 1015.9 hPa | 0 mm | 0 m/s | 49 W/m² | - |
| 1777994032 | 12.22° C | 88% | 1015.9 hPa | 0 mm | 0.45 m/s, 115° | 50 W/m² | - |
| 1777993729 | 12.78° C | 89% | 1016.1 hPa | 0 mm | 0.89 m/s, 143° | 43 W/m² | - |
| 1777993427 | 12.22° C | 90% | 1015.9 hPa | 0 mm | 0 m/s | 42 W/m² | - |
| 1777993126 | 12.22° C | 90% | 1015.8 hPa | 0 mm | 0 m/s | 36 W/m² | - |
| 1777992825 | 12.22° C | 90% | 1015.9 hPa | 0 mm | 0 m/s | 35 W/m² | - |
| 1777992522 | 12.22° C | 90% | 1015.7 hPa | 0 mm | 0.89 m/s, 143° | 30 W/m² | - |
* Rain latest hour (hover to see other rain measurements)
** Current wind speed in m/s (hover to see current wind gust speed)